Regional Weather Roundup
Issued by NWS

Home | Current Version | Previous Version | Text Only | Print | Product List | Glossary On
Versions: 1 2 3 4 5 6 7 8 9 10 11 12 13 14 15 16 17 18 19 20 21 22 23 24 25 26 27 28 29 30 31 32 33 34 35 36 37 38 39 40 41 42 43 44 45 46 47 48 49 50
000
ASUS44 KFWD 010410
RWRTX
NORTH TEXAS HOURLY WEATHER ROUNDUP
NATIONAL WEATHER SERVICE FORT WORTH TX
1100 PM CDT FRI OCT 31 2014

NOTE: "FAIR" INDICATES FEW OR NO CLOUDS BELOW 12,000 FEET WITH NO
SIGNIFICANT WEATHER AND/OR OBSTRUCTIONS TO VISIBILITY.

TXZ118-119-010500-
DALLAS/FORT WORTH METROPLEX

CITY           SKY/WX    TMP DP  RH WIND       PRES   REMARKS
DFW AIRPORT    PTCLDY    52  33  48 NE12      30.36R
DALLAS LOVE    PTCLDY    53  34  48 NE6       30.37R
FTW MEACHAM    CLEAR     53  37  54 N9        30.36R
DAL-EXECUTIVE  CLEAR     56  31  38 NE13      30.36R
FTW-ALLIANCE   PTCLDY    50  36  58 N8        30.37R
FTW-NAS-JRB    PTCLDY    58  36  43 NE9       30.41R
FTW-SPINKS     CLEAR     49  38  66 N5        30.37S
ARLINGTON      CLEAR     56  34  43 N8        30.36R
GRAND PRAIRIE  CLEAR     55  37  51 N8        30.38R
ADDISON        CLEAR     53  34  48 NE8       30.39R
MESQUITE       CLEAR     51  32  47 N6        30.37R
LANCASTER      CLEAR     49  33  55 CALM      30.38R
$$

TXZ091>094-102>105-117-120-121-131>134-010500-
NORTH CENTRAL TEXAS

CITY           SKY/WX    TMP DP  RH WIND       PRES   REMARKS
SHRMAN/DENISON CLEAR     46  31  56 NE8       30.39S
GAINESVILLE    CLEAR     44  31  58 N6        30.41R
BRIDGEPORT     CLEAR     49  36  60 NE6       30.40R
DECATUR        CLEAR     46  32  58 NE3       30.38S
DENTON         CLEAR     45  35  68 N7        30.38R
MCKINNEY       CLEAR     48  31  51 N9        30.37R
GREENVILLE     CLEAR     46  32  57 N6        30.36S
ROCKWALL       CLEAR     49  33  54 NE9       30.35R
TERRELL        CLEAR     49  36  61 N8        30.37R
WAXAHACHIE     CLEAR     50  38  63 N6        30.37S
CLEBURNE       CLEAR     50  39  66 N6        30.37S
GRANBURY       CLEAR     50  40  68 NW3       30.38R
$$

TXZ083>090-098>101-113>116-127>130-139>142-154-155-010500-
WESTERN NORTH TEXAS

CITY           SKY/WX    TMP DP  RH WIND       PRES   REMARKS
WICHITA FALLS  CLEAR     44  29  55 NE6       30.39S
WF-KICKAPOO    CLEAR     46  30  53 N5        30.41S
VERNON         CLEAR     45  27  49 NE5       30.40S
ABILENE        CLEAR     52  34  50 E7        30.37S
ABILENE-DYESS  CLEAR     50  34  54 E3        30.36S
BRECKENRIDGE   CLEAR     52  35  51 E3        30.37S
GRAHAM         CLEAR     44  36  75 CALM      30.37R
MINERAL WELLS  CLEAR     49  38  65 N3        30.36S
STEPHENVILLE   CLEAR     51  38  61 N3        30.38F
COMANCHE       CLEAR     50  40  70 CALM      30.37R
BROWNWOOD      CLOUDY    48  37  66 NE5       30.36S
COLEMAN        CLEAR     49  37  64 N3        30.36S
BRADY          CLEAR     52  36  54 NE7       30.34S
$$

TXZ143>147-156>162-174-175-010500-
CENTRAL TEXAS

CITY           SKY/WX    TMP DP  RH WIND       PRES   REMARKS
WACO           CLEAR     49  39  68 N6        30.34R
WACO-TSTC      CLEAR     52  39  62 N5        30.34R
WACO-MCGREGOR  CLEAR     52  36  54 N6        30.35S
HILLSBORO      CLEAR     53  37  54 N7        30.35S
CORSICANA      CLEAR     49  39  68 N5        30.35R
MEXIA          CLEAR     51  40  68 N3        30.32S
HEARNE         CLEAR     50  41  71 NW5       30.34R
CAMERON        CLEAR     52  41  66 N3        30.33R
TEMPLE         CLEAR     52  36  54 N6        30.33R
KILLEEN        CLEAR     51  40  64 N8        30.35R
KILLEEN-SKYLRK CLEAR     54  36  50 N7        30.33R
GATESVILLE     CLEAR     48  39  71 CALM      30.37R
HAMILTON       CLEAR     52  39  60 NE8       30.36R
LAMPASAS       CLEAR     51  42  71 N3        30.34R
$$

TXZ095>097-106>112-122>126-135>138-148>153-164>167-010500-
EAST TEXAS

CITY           SKY/WX    TMP DP  RH WIND       PRES   REMARKS
PARIS          CLEAR     45  30  57 N8        30.38R
SULPHUR SPRNGS CLEAR     49  36  61 N10       30.38S
MOUNT PLEASANT CLEAR     48  37  65 N8        30.37R
MINEOLA        CLEAR     48  39  71 N5        30.36S
TYLER          CLEAR     52  38  58 N10       30.33R
LONGVIEW       CLEAR     52  40  63 N6        30.32R
MARSHALL       CLEAR     53  44  71 N5        30.35R
ATHENS         CLEAR     50  37  62 CALM      30.33S
PALESTINE      CLEAR     51  42  72 N5        30.34R
JACKSONVILLE   CLEAR     52  42  68 N5        30.33S
HENDERSON      CLEAR     49  42  77 N3        30.33R
NACOGDOCHES    CLEAR     52  43  71 N6        30.32R
LUFKIN         CLEAR     57  44  62 N8        30.30R
$$

SUPPLEMENTAL OBSERVATIONS (CENTRAL)

CITY           SKY/WX    TMP DP  RH WIND       PRES   REMARKS
CADDO GRASSLND   N/A     39  32  75 N1          N/A
PAT MAYSE LAKE   N/A     41  32  70 N5          N/A  WCI  38
GREENVILLE       N/A     45  32  61 N6          N/A
CEDAR HILL       N/A     54  36  50 NE7         N/A
MCGREGOR         N/A     52  39  62 NE6         N/A
TEMPLE           N/A     55  39  54 N10         N/A
$$

SUPPLEMENTAL OBSERVATIONS (WEST)

CITY           SKY/WX    TMP DP  RH WIND       PRES   REMARKS
MILLERS CREEK    N/A     48  28  46 E7          N/A
LBJ GRASSLAND    N/A     48  32  53 N6          N/A
GRANBURY         N/A     48  37  66 NW3         N/A
HAMBY            N/A     48  32  53 E6          N/A
COLORADO BEND    N/A     50  37  62 E2          N/A
$$

SUPPLEMENTAL OBSERVATIONS (EAST)

CITY           SKY/WX    TMP DP  RH WIND       PRES   REMARKS
CLARKSVILLE      N/A     43  34  70 NW6         N/A  WCI  39
TEXARKANA        N/A     48  36  61 N5          N/A
LINDEN           N/A     46  37  71 CALM        N/A
GILMER           N/A     48  37  66 N5          N/A
HENDERSON        N/A     48  39  71 N5          N/A
LUFKIN           N/A     55  43  62 MISG        N/A
N SABINE NF      N/A     52  46  82 MISG        N/A
S SABINE NF      N/A     57  43  58 N3          N/A
$$

SUPPLEMENTAL OBSERVATIONS ARE A COLLECTION OF AUTOMATED INSTRUMENTS
THAT ARE MAINTAINED BY A VARIETY OF FEDERAL AND STATE AGENCIES.
CERTAIN ELEMENTS...SUCH AS HUMIDITY VALUES AND SUSTAINED WIND
SPEEDS...MAY BE APPROXIMATED.




USA.gov is the U.S. government's official web portal to all federal, state and local government web resources and services.